Theta_e
302 297 293 295 298 297 295 294 294 296 300 297 294 293 296 299 297 295 294 297 302 313 319 322 323 324 324 324 323 325 325 326 326 325 324 323 323 323 322 323 323 322 321 320
297 291 296 298 299 297 293 292 292 296 300 300 298 292 296 299 297 299 299 297 299 304 313 316 320 323 324 324 323 324 325 326 326 326 326 325 325 322 325 324 324 324 322 321
291 293 299 298 296 294 293 292 293 293 297 300 297 295 296 299 299 300 302 300 300 302 305 311 317 320 323 323 324 323 324 324 327 327 326 320 320 319 320 322 323 324 324 322
295 299 296 295 294 294 290 297 296 295 293 289 296 287 297 300 300 299 302 298 300 300 303 310 315 318 320 322 325 325 324 324 324 326 324 323 322 321 323 324 324 324 323 322
290 294 294 294 293 296 292 298 296 296 293 293 291 285 291 295 297 298 301 303 302 300 302 307 313 317 320 322 323 325 324 324 325 324 325 324 323 323 323 320 321 323 322 323
292 294 298 297 298 298 298 297 295 293 291 283 289 288 289 294 298 298 301 303 303 302 300 306 312 316 318 320 322 323 323 324 325 325 325 324 323 323 320 320 320 322 323 323
290 291 296 297 293 296 296 292 284 281 280 282 290 288 290 295 293 301 301 302 303 301 299 303 308 311 314 316 319 322 322 322 325 325 325 325 324 323 321 320 321 321 322 323
283 281 290 296 295 293 293 292 285 279 279 282 282 283 290 298 302 294 296 298 299 297 299 300 305 311 313 315 318 320 321 322 323 325 325 326 325 325 324 323 323 323 323 323
284 284 292 295 297 297 293 289 295 284 279 279 282 283 288 290 290 292 293 293 294 294 296 297 298 308 312 314 316 318 319 321 322 323 325 326 326 325 324 323 323 323 323 322
289 284 290 293 296 295 292 297 286 285 279 277 281 278 285 286 291 290 290 291 292 291 292 294 294 300 308 313 316 318 319 320 322 322 324 325 325 325 326 324 321 323 322 320
293 289 287 291 289 288 287 289 288 287 284 283 276 281 287 293 290 291 290 290 290 290 291 292 293 294 299 301 306 312 314 315 315 318 321 322 323 324 324 323 323 323 323 325
294 290 283 285 291 294 293 290 289 285 281 281 281 284 287 287 289 289 290 290 289 290 291 291 292 294 295 296 297 304 306 308 310 312 313 318 317 319 322 322 322 324 323 320
295 288 281 282 284 287 289 290 292 290 285 282 280 281 286 286 287 288 289 288 290 291 291 292 294 295 296 297 297 298 299 300 301 305 307 309 310 310 312 312 313 316 316 316
297 289 285 280 283 287 284 288 291 290 283 281 282 283 285 286 286 287 289 288 289 291 293 293 294 295 297 298 299 300 301 302 301 302 303 304 304 305 305 305 306 308 309 308
295 286 288 288 288 288 287 288 289 288 288 285 287 283 286 288 288 288 289 289 290 291 292 293 294 294 296 297 298 299 300 301 300 300 300 300 300 299 299 298 298 298 299 301
295 285 287 285 288 287 286 289 290 291 290 290 287 287 290 288 287 286 288 290 290 291 292 293 294 294 295 297 298 299 299 299 299 298 298 297 297 295 295 294 292 292 293 294
286 285 283 282 287 285 281 287 289 290 293 292 287 289 289 285 287 288 289 291 292 293 293 293 294 295 295 296 297 297 297 296 297 296 294 293 292 292 293 292 293 293 293 293
285 284 284 282 283 276 286 292 293 292 292 295 293 291 290 289 291 291 292 291 290 291 292 293 293 293 293 294 295 295 294 294 293 291 291 290 292 293 292 291 292 291 291 292
290 286 282 278 280 281 283 286 289 288 289 294 292 292 291 290 290 290 290 289 291 290 291 290 291 291 290 290 291 290 289 289 289 289 289 289 288 289 288 287 288 290 288 289
289 289 284 280 278 277 284 287 294 292 284 293 294 294 290 290 287 291 290 290 289 289 289 288 288 287 287 286 287 288 287 287 287 287 288 288 286 288 288 287 287 286 286 286
284 285 281 281 279 281 287 286 293 282 284 295 294 294 294 291 294 290 289 287 286 286 285 284 284 283 283 284 285 284 284 283 283 284 285 287 287 286 286 286 285 285 285 285
283 282 282 281 276 279 287 289 287 292 287 290 294 295 295 290 288 288 287 285 284 283 282 282 281 280 280 282 284 282 281 282 283 284 284 285 286 285 285 286 285 286 286 285
282 286 283 285 284 287 289 287 290 289 289 288 290 293 295 288 285 286 284 284 282 281 281 280 279 278 277 278 281 280 280 282 283 284 284 285 285 285 285 286 285 285 285 285
287 288 285 284 286 285 287 288 288 289 288 287 287 287 290 286 285 283 282 282 280 280 278 278 277 276 274 273 274 275 276 277 278 281 282 282 283 283 284 284 285 285 284 284
284 286 284 283 284 285 286 287 287 285 285 284 284 285 287 285 283 283 280 279 279 278 277 276 275 273 272 272 271 271 273 275 276 276 276 277 279 281 282 281 283 283 283 285
277 281 285 286 281 283 284 284 285 284 283 283 284 282 283 284 281 280 279 278 277 275 274 273 272 271 269 269 269 268 269 272 275 275 275 274 274 273 274 274 275 284 285 286
Wind_Speed
5 4 18 16 15 3 4 12 12 8 5 13 21 18 24 14 6 9 10 15 15 19 19 18 17 17 16 14 16 18 17 15 11 9 8 7 8 6 5 6 9 8 7 8
6 21 18 5 10 13 6 10 18 9 6 6 19 24 20 19 13 12 15 14 17 19 15 14 16 18 20 21 17 17 17 16 13 11 10 7 8 5 7 6 8 10 10 8
17 6 17 14 12 15 16 20 21 15 2 1 13 25 21 24 17 14 18 12 17 21 20 14 17 20 20 19 21 19 19 18 16 15 9 3 3 2 4 6 8 8 10 10
15 21 11 12 22 17 23 23 20 21 7 8 10 16 23 28 24 21 23 16 19 19 15 16 20 19 19 21 18 18 17 18 16 16 14 17 12 11 10 9 8 8 11 11
9 9 16 17 25 18 17 13 17 14 13 7 11 7 17 8 25 25 22 22 24 17 19 20 21 21 20 18 18 18 16 16 17 17 16 13 13 10 7 5 9 10 8 11
11 3 8 15 13 20 14 2 3 2 2 8 20 10 14 22 26 10 19 26 22 19 17 18 20 19 18 14 15 16 17 17 17 17 17 18 18 14 10 9 9 8 7 7
6 7 2 4 9 11 17 13 6 5 8 15 9 14 31 14 12 20 21 24 22 18 16 17 17 16 15 15 17 17 17 17 17 18 18 19 19 16 15 12 10 9 8 8
14 10 20 14 21 11 26 15 6 10 9 7 8 14 20 26 27 9 9 10 11 13 16 18 19 18 17 18 19 18 18 17 17 18 19 16 16 12 12 13 10 9 9 10
14 18 6 12 8 16 11 23 24 1 3 1 5 9 10 11 12 9 13 9 10 12 13 15 13 15 16 17 19 20 19 18 17 19 16 16 14 15 14 13 10 9 9 7
6 6 9 9 10 6 8 11 8 5 12 7 7 6 13 6 18 11 10 11 10 6 8 9 9 12 12 16 17 18 19 20 20 17 15 14 15 15 14 11 12 12 9 8
20 13 4 12 13 20 7 10 6 5 3 13 3 11 10 24 13 14 13 11 9 9 8 8 7 7 9 6 8 12 11 12 11 13 14 14 14 13 12 12 12 12 10 11
25 11 9 19 6 9 18 11 10 7 8 6 2 11 2 7 10 9 11 9 7 7 8 6 5 6 7 8 7 9 8 9 9 8 8 11 9 10 12 12 10 10 11 7
14 8 7 5 1 2 13 10 18 4 4 13 9 7 1 4 6 7 9 8 7 6 5 6 6 6 7 7 7 8 7 7 7 7 7 6 6 7 8 7 7 6 7 7
11 11 16 16 13 8 12 20 24 15 7 6 12 5 7 9 7 6 7 7 7 7 8 7 6 6 6 6 7 6 5 5 6 6 5 6 6 6 5 4 4 4 4 5
14 14 21 20 3 15 16 24 26 23 15 16 11 8 10 14 13 10 6 6 7 7 7 8 7 7 7 6 6 5 5 5 5 6 6 6 5 4 4 3 1 2 4 4
15 8 13 22 17 14 16 22 23 29 22 15 9 11 6 3 6 6 10 9 8 7 8 8 7 7 7 6 6 6 6 6 6 6 4 4 5 4 3 5 4 5 4 3
3 3 4 19 15 11 14 27 28 22 23 24 19 13 4 6 10 12 11 12 13 11 10 10 8 7 6 6 6 6 6 5 6 7 5 4 6 6 5 5 4 3 3 3
7 7 6 3 10 15 12 25 26 36 35 29 19 15 12 12 14 8 8 13 9 9 9 8 7 7 6 5 5 6 6 6 6 5 5 4 5 5 5 4 5 4 3 5
18 10 7 6 10 3 8 15 33 26 26 25 30 17 9 6 5 6 8 4 9 8 6 6 6 5 6 6 6 8 7 6 5 5 5 5 5 5 5 4 4 3 2 1
16 17 13 5 6 14 4 8 22 7 15 23 31 25 11 8 10 12 10 7 7 9 7 9 7 6 7 4 6 9 7 7 6 3 3 3 4 3 3 3 3 2 2 2
5 11 19 8 7 8 7 2 23 15 17 23 27 27 19 16 14 8 11 8 7 8 9 7 8 8 6 4 7 9 7 7 4 4 5 5 4 3 2 3 2 2 2 3
12 11 8 5 4 18 8 16 23 22 3 6 24 25 25 10 10 13 14 12 11 13 8 7 10 9 7 6 8 9 9 4 4 6 7 6 5 4 3 4 3 4 4 3
8 10 9 13 8 3 10 1 2 2 3 6 10 14 22 16 9 13 14 13 10 11 9 7 11 11 8 8 7 10 3 5 6 8 7 6 5 4 3 4 4 2 3 2
8 5 4 4 6 3 5 1 3 5 3 3 2 7 16 13 17 16 13 13 11 9 11 9 11 12 10 8 8 7 5 5 8 9 7 6 6 6 6 5 4 4 4 3
2 2 5 4 2 1 2 3 3 3 5 8 9 5 14 21 14 16 15 13 11 10 10 9 11 10 10 8 8 6 4 5 10 8 6 6 5 6 5 5 4 3 2 2
4 3 6 7 5 3 4 7 6 3 3 4 13 15 11 16 20 16 14 11 11 12 10 11 11 11 8 8 9 7 6 5 7 8 5 4 4 3 4 4 4 10 9 8
Wind_Direction
161 205 222 207 217 253 210 228 229 238 245 312 247 246 247 237 218 237 233 221 209 216 219 209 202 196 197 196 190 192 190 193 184 189 190 206 204 203 200 198 200 194 192 190
188 228 229 250 210 216 178 225 244 277 238 286 274 265 248 248 229 223 223 220 220 221 217 207 195 194 195 199 189 190 193 186 186 190 193 201 195 205 206 198 203 197 197 193
204 191 196 204 207 200 209 221 233 239 211 221 297 273 261 260 226 233 235 223 219 219 209 200 196 199 199 199 195 186 190 185 189 186 180 140 140 165 190 202 206 204 198 197
233 233 182 195 219 196 228 220 235 244 227 222 172 277 254 247 241 224 231 219 225 219 209 199 200 203 198 203 198 191 186 188 188 182 184 191 197 202 210 206 202 196 196 199
220 165 204 219 217 195 241 215 214 236 236 273 238 259 266 244 241 225 219 226 226 209 200 201 202 202 201 196 194 194 183 189 191 188 192 193 206 212 199 188 188 204 201 202
243 4 208 224 220 205 219 305 133 140 73 238 234 211 243 236 239 228 220 227 223 214 206 204 201 196 201 192 187 187 188 194 191 192 193 198 207 205 200 195 200 207 211 204
207 211 205 176 206 209 209 196 216 200 193 238 184 207 245 242 250 224 215 225 219 207 201 200 193 195 193 182 184 188 190 196 195 197 201 204 208 207 207 202 202 200 208 210
205 225 200 200 210 197 206 208 216 225 211 216 138 213 244 223 244 237 246 232 215 203 202 203 198 194 190 187 187 185 189 196 193 197 206 206 206 208 209 206 203 208 205 206
199 233 157 193 178 196 190 213 222 140 339 53 208 267 283 249 265 232 238 227 216 200 200 203 194 193 188 188 189 187 190 197 194 201 202 205 205 209 210 209 207 204 205 197
222 259 195 177 192 233 212 173 186 239 199 237 232 241 231 219 229 227 228 226 224 203 198 209 191 193 194 193 192 191 192 193 197 197 198 203 204 206 208 199 201 208 203 190
228 242 172 160 195 187 171 196 215 164 209 225 267 252 194 220 225 209 215 219 201 200 197 203 198 194 188 159 167 182 183 178 181 190 196 198 203 204 197 202 204 203 202 206
205 218 219 216 177 213 207 200 177 199 200 251 220 250 215 226 237 210 197 196 192 193 201 200 175 148 150 161 159 170 167 174 181 175 179 198 190 188 196 201 198 196 202 181
185 222 236 169 340 350 210 197 204 250 2 207 190 245 232 203 209 220 171 175 173 153 139 139 155 165 156 152 157 165 169 184 179 176 177 175 178 175 189 191 196 186 173 177
201 206 215 213 214 147 198 196 201 193 179 191 231 203 202 210 217 206 197 165 174 173 163 161 163 175 179 164 162 164 163 160 154 164 171 173 179 185 182 173 187 202 197 182
225 247 216 230 244 175 200 200 193 207 208 214 211 240 221 199 201 198 180 164 165 177 179 182 185 186 182 173 164 155 153 148 142 151 160 177 160 149 143 160 168 38 30 16
212 257 226 236 238 199 200 200 200 214 214 251 295 239 235 131 103 169 187 173 173 182 191 187 177 178 184 177 171 164 165 162 146 156 178 146 128 107 86 68 60 73 55 35
230 268 192 239 208 192 228 196 192 205 218 215 225 243 198 165 196 194 184 182 182 182 179 172 173 175 173 175 162 175 164 138 154 152 156 157 141 137 135 134 139 152 163 167
233 231 278 266 142 209 244 191 200 201 206 207 216 209 197 187 198 189 185 174 179 175 167 165 157 149 146 144 136 137 140 147 151 145 143 140 144 137 130 153 177 179 182 206
206 203 252 248 213 315 243 205 193 183 222 213 219 227 202 141 104 234 197 179 176 161 139 119 108 104 102 103 118 114 106 116 126 146 151 162 164 148 143 174 189 180 169 207
222 213 204 218 196 222 229 176 198 186 261 213 212 208 181 144 175 212 157 125 103 97 110 123 114 110 98 55 110 106 110 110 106 100 132 143 147 132 162 176 162 140 145 176
187 190 201 193 243 269 238 167 141 151 241 209 201 203 187 184 204 142 112 89 101 100 108 92 76 81 68 77 95 91 92 80 72 76 66 68 66 89 90 113 94 98 88 76
186 181 194 189 219 248 162 141 164 206 221 211 192 194 199 172 117 125 122 124 118 111 99 97 97 78 53 54 94 87 75 65 76 82 86 79 74 64 74 97 90 85 100 89
245 209 191 194 219 316 187 198 249 74 197 185 190 200 190 151 148 141 134 125 116 119 120 99 100 91 57 51 77 98 89 109 105 95 88 86 84 78 63 91 91 97 99 100
205 269 215 108 221 273 229 351 6 344 45 15 79 129 142 135 134 123 122 122 122 116 103 101 100 91 77 48 53 53 56 86 101 95 77 65 71 63 61 65 51 47 40 37
174 268 191 277 270 336 306 11 42 29 64 79 55 77 132 127 129 132 122 116 112 106 96 102 102 94 84 76 57 35 39 96 89 88 89 87 77 70 69 60 54 58 54 35
118 278 213 225 24 332 10 352 2 18 76 96 120 96 85 124 123 119 106 106 109 109 103 91 89 94 89 78 69 38 23 53 91 88 78 74 84 83 77 60 40 45 47 50